Regional Weather Roundup
Issued by NWS Kansas City/Pleasant Hill, MO

Home | Current Version | Previous Version | Graphics & Text | Print | Product List | Glossary Off
Versions: 1 2 3 4 5 6 7 8 9 10 11 12 13 14 15 16 17 18 19 20 21 22 23 24 25 26 27

000
ASUS43 KEAX 181810
RWREAX

WEATHER ROUNDUP FOR EASTERN KANSAS AND NORTHWEST MISSOURI
NATIONAL WEATHER SERVICE KANSAS CITY/PLEASANT HILL MO
1200 PM CST SAT NOV 18 2017

KSZ040-057-103>105-MOZ028-029-037-043-181900-
...KANSAS CITY METROPOLITAN AREA...

CITY           SKY/WX    TMP DP  RH WIND       PRES   REMARKS
K.C. INTL      CLOUDY    44  36  73 N18G28    29.90R
6HR MIN TEMP:  42; 6HR MAX TEMP:  47; 6HR PCP:  0.01;

K.C. DOWNTOWN  CLOUDY    45  36  70 NW20G26   29.90R
6HR MIN TEMP:  44; 6HR MAX TEMP:  50; 6HR PCP:  0.06;

LEES SUMMIT    CLOUDY    44  39  82 NW15      29.90R
6HR MIN TEMP:  42; 6HR MAX TEMP:  50; 6HR PCP:  0.06;

OLATHE - IXD   CLOUDY    44  36  73 NW21G31   29.93R
6HR MIN TEMP:  42; 6HR MAX TEMP:  49; 6HR PCP:  0.05;

OLATHE - OJC   LGT RAIN  43  36  76 NW21G32   29.91R WCI  34
6HR MIN TEMP:  42; 6HR MAX TEMP:  46; 6HR PCP:  0.06;

LAWRENCE       CLOUDY    47  34  60 NW23G32   29.95R

$$

MOZ001>008-011>017-020>025-030>033-038>040-044>046-053-054-181900-
...NORTHERN AND CENTRAL MISSOURI...

CITY           SKY/WX    TMP DP  RH WIND       PRES   REMARKS
ST. JOSEPH     CLOUDY    45  35  68 NW22G28   29.92R
6HR MIN TEMP:  42; 6HR MAX TEMP:  45; 6HR PCP:  0.18;

MOSBY          CLOUDY    43  36  75 NW18G25   29.90R WCI  34
WARRENSBURG    CLOUDY    43  39  87 W14G21    29.85R
WHITEMAN AFB   LGT RAIN  43  40  89 NW15G22   29.79R
6HR MIN TEMP:  42; 6HR MAX TEMP:  57; 6HR PCP:  0.20;

CLINTON        LGT RAIN  43  41  93 MISG      29.86R
SEDALIA        LGT RAIN  43  42  97 NW17G28   29.82R
6HR MIN TEMP:  43; 6HR MAX TEMP:  60; 6HR PCP:  0.23;

WARSAW         NOT AVBL
CHILLICOTHE      N/A     44  37  76 NW10G21   29.83R
6HR MIN TEMP:  42; 6HR MAX TEMP:  46; 6HR PCP:  0.17;

KIRKSVILLE     CLOUDY    41  39  93 NW17G30   29.71S WCI  32
6HR MIN TEMP:  39; 6HR MAX TEMP:  45; 6HR PCP:  0.18;


$$

MOZ041-047>049-056>058-063>065-088>090-097-181900-
...EASTERN AND SOUTHERN MISSOURI...

CITY           SKY/WX    TMP DP  RH WIND       PRES   REMARKS
ST. LOUIS INTL CLOUDY    46  42  86 NW26G36   29.50R
6HR MIN TEMP:  46; 6HR MAX TEMP:  72; 6HR PCP: TRACE;

SPIRIT OF STL  CLOUDY    47  41  80 NW15G31   29.54R
COLUMBIA       LGT RAIN  43  40  89 NW24G37   29.71R FOG     WCI  33
JEFFERSON CITY RAIN      44  41  89 NW18G25   29.72R FOG
ROLLA          LGT RAIN  43  42  97 NW18G36   29.64R FOG     WCI  35
OSAGE BEACH    RAIN      43  41  93 NW13G23   29.77R
SPRINGFIELD    LGT RAIN  45  42  89 NW25G43   29.81R
BRANSON        LGT RAIN  46  45  93 NW20G35   29.78R FOG
JOPLIN         LGT RAIN  45  43  93 NW23G30   29.93R
WEST PLAINS    CLOUDY    51  44  77 NW22G41   29.64R

$$

IAZ060-094-KSZ022-034>040-054-083-096-NEZ052-066-093-181900-
...KANSAS...SOUTHEAST NEBRASKA AND IOWA...

CITY           SKY/WX    TMP DP  RH WIND       PRES   REMARKS
TOPEKA         CLOUDY    48  29  47 NW24G41   29.97R
6HR MIN TEMP:  44; 6HR MAX TEMP:  48; 6HR PCP:  0.01;

MANHATTAN      CLOUDY    50  37  61 N13G23    30.04R
EMPORIA        CLOUDY    46  32  58 NW25G39   30.02R
CHANUTE        CLOUDY    47  35  63 NW23G33   29.98R
WICHITA        CLOUDY    49  37  63 NW20G26   30.10R
OMAHA          MOSUNNY   45  32  60 N23G35    29.97R
LINCOLN        MOSUNNY   50  35  56 N24G33    30.02R
FALLS CITY     CLOUDY    45  29  53 NW23G32   29.96R
LAMONI         CLOUDY    42  32  67 N20G30    29.82R WCI  33
DES MOINES     PTSUNNY   42  31  64 NW18      29.83R WCI  34

$$





USA.gov is the U.S. government's official web portal to all federal, state and local government web resources and services.